When you browse on this site, cookies collect data to enhance your experience and personalize the content and advertising you see.
Visit our Privacy Policy to learn more. By continuing to use the site, you agree to this use of cookies and data.
  • In Latvia
  • List of Countries
  • For 7 days
  • Water Temperature
  • Weather Map
  • Weather Widgets
  • user-avatar
    Login

    Hourly Weather Hurghada

    Today, 25 May, Monday

    Time Temperature Precipitation Wind Pressure Humidity
    00:00 +15°C° 0 mm 5 mps 682 mmHg 36%
    01:00 +14°C° 0 mm 5 mps 682 mmHg 39%
    02:00 +13°C° 0 mm 4 mps 681 mmHg 41%
    03:00 +13°C° 0 mm 4 mps 682 mmHg 34%
    04:00 +13°C° 0 mm 4 mps 682 mmHg 27%
    05:00 +13°C° 0 mm 3 mps 682 mmHg 21%
    06:00 +16°C° 0 mm 3 mps 683 mmHg 18%
    07:00 +18°C° 0 mm 3 mps 683 mmHg 15%
    08:00 +20°C° 0 mm 4 mps 684 mmHg 12%
    09:00 +22°C° 0 mm 4 mps 684 mmHg 12%
    10:00 +25°C° 0 mm 4 mps 684 mmHg 11%
    11:00 +26°C° 0 mm 4 mps 685 mmHg 11%
    12:00 +27°C° 0 mm 5 mps 684 mmHg 11%
    13:00 +28°C° 0 mm 5 mps 684 mmHg 12%
    14:00 +28°C° 0 mm 5 mps 684 mmHg 13%
    15:00 +28°C° 0 mm 5 mps 684 mmHg 13%
    16:00 +27°C° 0 mm 5 mps 683 mmHg 14%
    17:00 +27°C° 0 mm 5 mps 683 mmHg 15%
    18:00 +25°C° 0 mm 4 mps 683 mmHg 18%
    19:00 +22°C° 0 mm 3 mps 682 mmHg 21%
    20:00 +20°C° 0 mm 3 mps 682 mmHg 25%
    21:00 +20°C° 0 mm 3 mps 682 mmHg 23%
    22:00 +20°C° 0 mm 3 mps 682 mmHg 21%
    23:00 +20°C° 0 mm 3 mps 682 mmHg 19%

    Tomorrow, 26 May, Tuesday

    Time Temperature Precipitation Wind Pressure Humidity
    00:00 +19°C° 0 mm 3 mps 682 mmHg 20%
    01:00 +19°C° 0 mm 3 mps 682 mmHg 20%
    02:00 +18°C° 0 mm 3 mps 681 mmHg 20%
    03:00 +18°C° 0 mm 2 mps 681 mmHg 21%
    04:00 +17°C° 0 mm 2 mps 681 mmHg 22%
    05:00 +16°C° 0 mm 2 mps 681 mmHg 22%
    06:00 +19°C° 0 mm 2 mps 682 mmHg 20%
    07:00 +23°C° 0 mm 2 mps 683 mmHg 17%
    08:00 +25°C° 0 mm 2 mps 684 mmHg 14%
    09:00 +27°C° 0 mm 2 mps 684 mmHg 13%
    10:00 +29°C° 0 mm 3 mps 684 mmHg 11%
    11:00 +31°C° 0 mm 3 mps 684 mmHg 10%
    12:00 +31°C° 0 mm 3 mps 684 mmHg 10%
    13:00 +33°C° 0 mm 4 mps 684 mmHg 10%
    14:00 +34°C° 0 mm 4 mps 684 mmHg 11%
    15:00 +33°C° 0 mm 4 mps 683 mmHg 12%
    16:00 +32°C° 0 mm 4 mps 683 mmHg 13%
    17:00 +32°C° 0 mm 4 mps 683 mmHg 14%
    18:00 +28°C° 0 mm 3 mps 682 mmHg 16%
    19:00 +26°C° 0 mm 3 mps 682 mmHg 18%
    20:00 +24°C° 0 mm 3 mps 682 mmHg 20%
    21:00 +23°C° 0 mm 2 mps 682 mmHg 18%
    22:00 +23°C° 0 mm 2 mps 681 mmHg 16%
    23:00 +21°C° 0 mm 2 mps 681 mmHg 15%

    Day after tomorrow, 27 May, Wednesday

    Time Temperature Precipitation Wind Pressure Humidity
    00:00 +21°C° 0 mm 1 mps 681 mmHg 15%
    01:00 +21°C° 0 mm 1 mps 681 mmHg 15%
    02:00 +20°C° 0 mm 1 mps 680 mmHg 15%
    03:00 +20°C° 0 mm 1 mps 680 mmHg 17%
    04:00 +19°C° 0 mm 1 mps 681 mmHg 18%
    05:00 +19°C° 0 mm 1 mps 681 mmHg 20%
    06:00 +22°C° 0 mm 1 mps 682 mmHg 17%
    07:00 +25°C° 0 mm 2 mps 683 mmHg 15%
    08:00 +28°C° 0 mm 2 mps 684 mmHg 12%
    09:00 +30°C° 0 mm 2 mps 684 mmHg 11%
    10:00 +31°C° 0 mm 3 mps 684 mmHg 10%
    11:00 +34°C° 0 mm 3 mps 685 mmHg 8%
    12:00 +34°C° 0 mm 4 mps 684 mmHg 9%
    13:00 +35°C° 0 mm 5 mps 684 mmHg 9%
    14:00 +35°C° 0 mm 5 mps 684 mmHg 9%
    15:00 +35°C° 0 mm 5 mps 683 mmHg 10%
    16:00 +34°C° 0 mm 5 mps 683 mmHg 11%
    17:00 +33°C° 0 mm 5 mps 683 mmHg 13%
    18:00 +30°C° 0 mm 4 mps 683 mmHg 15%
    19:00 +27°C° 0 mm 4 mps 683 mmHg 18%
    20:00 +25°C° 0 mm 3 mps 682 mmHg 20%
    21:00 +24°C° 0 mm 3 mps 682 mmHg 21%
    22:00 +24°C° 0 mm 2 mps 682 mmHg 21%
    23:00 +23°C° 0 mm 2 mps 682 mmHg 21%

    28 May, Thursday

    Time Temperature Precipitation Wind Pressure Humidity
    00:00 +23°C° 0 mm 2 mps 682 mmHg 24%
    01:00 +21°C° 0 mm 3 mps 682 mmHg 26%
    02:00 +21°C° 0 mm 3 mps 682 mmHg 28%
    03:00 +20°C° 0 mm 2 mps 682 mmHg 30%
    04:00 +20°C° 0 mm 2 mps 682 mmHg 32%
    05:00 +19°C° 0 mm 2 mps 682 mmHg 34%
    06:00 +21°C° 0 mm 3 mps 683 mmHg 30%
    07:00 +25°C° 0 mm 3 mps 683 mmHg 25%
    08:00 +27°C° 0 mm 4 mps 684 mmHg 21%
    09:00 +28°C° 0 mm 4 mps 684 mmHg 19%
    10:00 +30°C° 0 mm 5 mps 684 mmHg 17%
    11:00 +32°C° 0 mm 5 mps 685 mmHg 15%
    12:00 +33°C° 0 mm 6 mps 684 mmHg 14%
    13:00 +33°C° 0 mm 7 mps 684 mmHg 13%
    14:00 +33°C° 0 mm 7 mps 684 mmHg 12%
    15:00 +33°C° 0 mm 7 mps 683 mmHg 13%
    16:00 +32°C° 0 mm 7 mps 683 mmHg 13%
    17:00 +30°C° 0 mm 7 mps 683 mmHg 13%
    18:00 +28°C° 0 mm 6 mps 683 mmHg 15%
    19:00 +26°C° 0 mm 5 mps 683 mmHg 18%
    20:00 +23°C° 0 mm 4 mps 682 mmHg 20%
    21:00 +22°C° 0 mm 4 mps 683 mmHg 20%
    22:00 +22°C° 0 mm 4 mps 683 mmHg 20%
    23:00 +22°C° 0 mm 4 mps 683 mmHg 20%

    29 May, Friday

    Time Temperature Precipitation Wind Pressure Humidity
    00:00 +21°C° 0 mm 4 mps 683 mmHg 21%
    01:00 +21°C° 0 mm 4 mps 683 mmHg 21%
    02:00 +20°C° 0 mm 4 mps 682 mmHg 22%
    03:00 +20°C° 0 mm 3 mps 682 mmHg 23%
    04:00 +20°C° 0 mm 3 mps 683 mmHg 23%
    05:00 +20°C° 0 mm 3 mps 683 mmHg 24%
    06:00 +22°C° 0 mm 3 mps 683 mmHg 22%
    07:00 +25°C° 0 mm 3 mps 684 mmHg 21%
    08:00 +27°C° 0 mm 3 mps 685 mmHg 20%
    09:00 +28°C° 0 mm 4 mps 685 mmHg 19%
    10:00 +30°C° 0 mm 4 mps 685 mmHg 18%
    11:00 +32°C° 0 mm 4 mps 685 mmHg 18%
    12:00 +32°C° 0 mm 5 mps 685 mmHg 17%
    13:00 +33°C° 0 mm 7 mps 685 mmHg 17%
    14:00 +34°C° 0 mm 8 mps 685 mmHg 16%
    15:00 +33°C° 0 mm 7 mps 685 mmHg 17%
    16:00 +30°C° 0 mm 7 mps 684 mmHg 19%
    17:00 +29°C° 0 mm 6 mps 684 mmHg 20%
    18:00 +27°C° 0 mm 5 mps 684 mmHg 23%
    19:00 +26°C° 0 mm 4 mps 684 mmHg 25%
    20:00 +24°C° 0 mm 3 mps 684 mmHg 27%
    21:00 +22°C° 0 mm 3 mps 684 mmHg 27%
    22:00 +22°C° 0 mm 3 mps 684 mmHg 28%
    23:00 +22°C° 0 mm 3 mps 684 mmHg 28%

    30 May, Saturday

    Time Temperature Precipitation Wind Pressure Humidity
    00:00 +21°C° 0 mm 3 mps 683 mmHg 28%
    01:00 +21°C° 0 mm 2 mps 683 mmHg 28%
    02:00 +20°C° 0 mm 2 mps 683 mmHg 28%
    03:00 +20°C° 0 mm 2 mps 683 mmHg 29%
    04:00 +19°C° 0 mm 2 mps 683 mmHg 31%
    05:00 +19°C° 0 mm 2 mps 683 mmHg 32%
    06:00 +21°C° 0 mm 2 mps 684 mmHg 28%
    07:00 +24°C° 0 mm 3 mps 684 mmHg 24%
    08:00 +26°C° 0 mm 3 mps 685 mmHg 20%
    09:00 +28°C° 0 mm 3 mps 685 mmHg 18%
    10:00 +29°C° 0 mm 4 mps 686 mmHg 16%
    11:00 +32°C° 0 mm 4 mps 686 mmHg 14%
    12:00 +33°C° 0 mm 5 mps 686 mmHg 13%
    13:00 +33°C° 0 mm 6 mps 685 mmHg 12%
    14:00 +34°C° 0 mm 7 mps 685 mmHg 11%
    15:00 +34°C° 0 mm 7 mps 685 mmHg 11%
    16:00 +33°C° 0 mm 7 mps 685 mmHg 11%
    17:00 +32°C° 0 mm 7 mps 684 mmHg 11%
    18:00 +29°C° 0 mm 6 mps 684 mmHg 11%
    19:00 +27°C° 0 mm 4 mps 684 mmHg 12%
    20:00 +24°C° 0 mm 3 mps 684 mmHg 12%
    21:00 +24°C° 0 mm 3 mps 684 mmHg 12%
    22:00 +24°C° 0 mm 2 mps 684 mmHg 12%
    23:00 +23°C° 0 mm 2 mps 684 mmHg 11%
    Show more